| time (UTC) | temp C | wind direction | speed KPH | gust KPH | rain 1hr cm | rain 24hr cm | rain mn cm | humidity % | barometer mb |
| 20260508194508 | 19 | 355 | 4.8 | 16.1 | 0.00 | 0.03 | 0.00 | 41 | 1013.0 |
| 20260508194020 | 20 | 281 | 8.0 | 17.7 | 0.00 | 0.03 | 0.00 | 42 | 1013.1 |
| 20260508193534 | 20 | 317 | 3.2 | 17.7 | 0.00 | 0.03 | 0.00 | 43 | 1013.1 |
| 20260508193051 | 20 | 318 | 6.4 | 16.1 | 0.00 | 0.03 | 0.00 | 41 | 1013.1 |
| 20260508192504 | 20 | 296 | 3.2 | 16.1 | 0.00 | 0.03 | 0.00 | 45 | 1013.2 |
| 20260508192017 | 20 | 51 | 11.3 | 16.1 | 0.00 | 0.03 | 0.00 | 45 | 1013.1 |
| 20260508191530 | 20 | 96 | 4.8 | 9.7 | 0.00 | 0.03 | 0.00 | 37 | 1013.1 |
| 20260508191038 | 20 | 250 | 1.6 | 8.0 | 0.00 | 0.03 | 0.00 | 41 | 1013.2 |
| 20260508190552 | 20 | 271 | 3.2 | 9.7 | 0.00 | 0.03 | 0.00 | 44 | 1013.3 |
| 20260508190011 | 20 | 337 | 4.8 | 9.7 | 0.00 | 0.03 | 0.00 | 40 | 1013.4 |
| 20260508185523 | 20 | 275 | 3.2 | 9.7 | 0.00 | 0.03 | 0.00 | 42 | 1013.5 |
| 20260508185034 | 20 | 360 | 3.2 | 9.7 | 0.00 | 0.03 | 0.00 | 41 | 1013.7 |
| 20260508184547 | 20 | 204 | 3.2 | 9.7 | 0.00 | 0.03 | 0.00 | 48 | 1013.7 |
| 20260508184104 | 20 | 194 | 1.6 | 8.0 | 0.00 | 0.03 | 0.00 | 46 | 1013.9 |
| 20260508184001 | 20 | 115 | 1.6 | 8.0 | 0.00 | 0.03 | 0.00 | 45 | 1013.9 |
| 20260508183512 | 19 | 257 | 3.2 | 12.9 | 0.00 | 0.03 | 0.00 | 49 | 1014.0 |
| 20260508183029 | 19 | 306 | 1.6 | 12.9 | 0.00 | 0.03 | 0.00 | 45 | 1013.9 |
| 20260508182538 | 18 | 244 | 4.8 | 12.9 | 0.00 | 0.03 | 0.00 | 44 | 1013.9 |
| 20260508182052 | 18 | 167 | 3.2 | 8.0 | 0.00 | 0.03 | 0.00 | 51 | 1014.1 |
| 20260508181513 | 18 | 84 | 1.6 | 9.7 | 0.00 | 0.03 | 0.00 | 48 | 1014.1 |
| 20260508181019 | 18 | 288 | 3.2 | 16.1 | 0.00 | 0.03 | 0.00 | 47 | 1014.2 |
| 20260508180532 | 18 | 313 | 3.2 | 16.1 | 0.00 | 0.03 | 0.00 | 51 | 1014.2 |
| 20260508180044 | 18 | 340 | 8.0 | 16.1 | 0.00 | 0.03 | 0.00 | 52 | 1014.3 |
| 20260508175601 | 18 | 355 | 4.8 | 14.5 | 0.00 | 0.03 | 0.00 | 50 | 1014.4 |
| 20260508175502 | 18 | 322 | 6.4 | 14.5 | 0.00 | 0.03 | 0.00 | 51 | 1014.4 |
| 20260508175019 | 18 | 279 | 1.6 | 14.5 | 0.00 | 0.03 | 0.00 | 56 | 1014.5 |
| 20260508174537 | 18 | 29 | 8.0 | 14.5 | 0.00 | 0.03 | 0.00 | 46 | 1014.5 |
| 20260508174046 | 18 | 37 | 3.2 | 11.3 | 0.00 | 0.03 | 0.00 | 48 | 1014.8 |
| 20260508173556 | 18 | 221 | 3.2 | 8.0 | 0.00 | 0.03 | 0.00 | 47 | 1014.8 |
| 20260508173016 | 17 | 315 | 3.2 | 14.5 | 0.00 | 0.03 | 0.00 | 49 | 1014.9 |
| 20260508172529 | 17 | 64 | 6.4 | 14.5 | 0.00 | 0.03 | 0.00 | 46 | 1015.0 |
| 20260508172040 | 17 | 277 | 4.8 | 12.9 | 0.00 | 0.03 | 0.00 | 51 | 1015.2 |
| 20260508171554 | 17 | 22 | 6.4 | 16.1 | 0.00 | 0.03 | 0.00 | 51 | 1015.2 |
| 20260508171010 | 17 | 43 | 9.7 | 16.1 | 0.00 | 0.03 | 0.00 | 50 | 1015.2 |
| 20260508170526 | 17 | 155 | 0.0 | 9.7 | 0.00 | 0.03 | 0.00 | 47 | 1015.4 |
| 20260508170036 | 17 | 313 | 3.2 | 12.9 | 0.00 | 0.03 | 0.00 | 54 | 1015.4 |
| 20260508165553 | 17 | 299 | 3.2 | 12.9 | 0.00 | 0.03 | 0.00 | 56 | 1015.6 |
| 20260508165006 | 17 | 23 | 3.2 | 16.1 | 0.00 | 0.03 | 0.00 | 51 | 1015.7 |
| 20260508164527 | 17 | 9 | 6.4 | 16.1 | 0.00 | 0.03 | 0.00 | 47 | 1015.8 |
| 20260508164030 | 17 | 247 | 4.8 | 11.3 | 0.00 | 0.03 | 0.00 | 50 | 1015.8 |
| 20260508163544 | 17 | 197 | 1.6 | 11.3 | 0.00 | 0.03 | 0.00 | 52 | 1015.8 |
| 20260508163059 | 17 | 267 | 3.2 | 16.1 | 0.00 | 0.03 | 0.00 | 54 | 1015.9 |
| 20260508162514 | 17 | 55 | 6.4 | 17.7 | 0.00 | 0.03 | 0.00 | 53 | 1016.0 |
| 20260508162025 | 17 | 347 | 3.2 | 9.7 | 0.00 | 0.03 | 0.00 | 53 | 1016.0 |
| 20260508161537 | 17 | 284 | 3.2 | 9.7 | 0.00 | 0.03 | 0.00 | 54 | 1016.1 |
| 20260508161050 | 17 | 355 | 6.4 | 12.9 | 0.00 | 0.03 | 0.00 | 45 | 1016.2 |
| 20260508160507 | 17 | 302 | 1.6 | 9.7 | 0.00 | 0.03 | 0.00 | 42 | 1016.3 |
| 20260508160023 | 17 | 344 | 1.6 | 8.0 | 0.00 | 0.03 | 0.00 | 51 | 1016.4 |
| 20260508155532 | 17 | 333 | 3.2 | 6.4 | 0.00 | 0.05 | 0.00 | 42 | 1016.5 |
| 20260508155042 | 17 | 63 | 1.6 | 4.8 | 0.00 | 0.05 | 0.00 | 43 | 1016.6 |
| 20260508154600 | 17 | 32 | 1.6 | 8.0 | 0.00 | 0.05 | 0.00 | 48 | 1016.6 |
| 20260508154011 | 16 | 289 | 3.2 | 14.5 | 0.00 | 0.05 | 0.00 | 46 | 1016.6 |
| 20260508153526 | 16 | 308 | 6.4 | 14.5 | 0.00 | 0.05 | 0.00 | 48 | 1016.7 |
| 20260508153039 | 16 | 323 | 0.0 | 14.5 | 0.00 | 0.05 | 0.00 | 42 | 1016.7 |
| 20260508152551 | 16 | 10 | 9.7 | 14.5 | 0.00 | 0.05 | 0.00 | 42 | 1016.8 |
| 20260508152008 | 16 | 331 | 3.2 | 6.4 | 0.00 | 0.05 | 0.00 | 43 | 1016.8 |
| 20260508151518 | 16 | 28 | 1.6 | 6.4 | 0.00 | 0.05 | 0.00 | 50 | 1016.8 |
| 20260508151032 | 16 | 139 | 3.2 | 8.0 | 0.00 | 0.05 | 0.00 | 53 | 1016.9 |
| 20260508150541 | 15 | 242 | 3.2 | 8.0 | 0.00 | 0.05 | 0.00 | 50 | 1016.9 |
| 20260508150056 | 15 | 336 | 3.2 | 8.0 | 0.00 | 0.05 | 0.00 | 49 | 1017.0 |
| 20260508145512 | 15 | 15 | 3.2 | 6.4 | 0.00 | 0.05 | 0.00 | 50 | 1017.0 |
| 20260508145023 | 15 | 60 | 1.6 | 8.0 | 0.00 | 0.05 | 0.00 | 52 | 1017.1 |
| 20260508144537 | 15 | 9 | 4.8 | 8.0 | 0.00 | 0.05 | 0.00 | 55 | 1017.0 |
| 20260508144052 | 14 | 61 | 1.6 | 6.4 | 0.00 | 0.05 | 0.00 | 59 | 1017.1 |
| 20260508143504 | 13 | 65 | 1.6 | 6.4 | 0.00 | 0.05 | 0.00 | 54 | 1017.1 |
| 20260508143017 | 13 | 14 | 0.0 | 8.0 | 0.00 | 0.05 | 0.00 | 61 | 1017.1 |
| 20260508142530 | 13 | 61 | 3.2 | 8.0 | 0.00 | 0.05 | 0.00 | 55 | 1017.2 |
| 20260508142042 | 13 | 16 | 1.6 | 8.0 | 0.00 | 0.05 | 0.00 | 60 | 1017.2 |
| 20260508141554 | 13 | 346 | 4.8 | 6.4 | 0.00 | 0.05 | 0.00 | 70 | 1017.3 |
| 20260508141011 | 12 | 19 | 1.6 | 6.4 | 0.00 | 0.05 | 0.00 | 77 | 1017.2 |
| 20260508140520 | 12 | 17 | 3.2 | 6.4 | 0.00 | 0.05 | 0.00 | 80 | 1017.3 |
| 20260508140033 | 12 | 37 | 3.2 | 6.4 | 0.00 | 0.05 | 0.00 | 77 | 1017.4 |
| 20260508135544 | 12 | 39 | 1.6 | 6.4 | 0.00 | 0.05 | 0.00 | 77 | 1017.4 |
| 20260508135058 | 11 | 82 | 1.6 | 6.4 | 0.00 | 0.05 | 0.00 | 79 | 1017.4 |
| 20260508134511 | 11 | 50 | 3.2 | 6.4 | 0.00 | 0.05 | 0.00 | 82 | 1017.5 |
| 20260508134026 | 11 | 26 | 0.0 | 6.4 | 0.00 | 0.05 | 0.00 | 84 | 1017.4 |
| 20260508133538 | 10 | 61 | 0.0 | 4.8 | 0.00 | 0.05 | 0.00 | 84 | 1017.4 |
| 20260508133050 | 10 | 62 | 1.6 | 6.4 | 0.00 | 0.05 | 0.00 | 86 | 1017.4 |
| 20260508132600 | 10 | 349 | 3.2 | 6.4 | 0.00 | 0.05 | 0.00 | 85 | 1017.4 |
| 20260508132505 | 10 | 349 | 3.2 | 6.4 | 0.00 | 0.05 | 0.00 | 85 | 1017.3 |
| 20260508132017 | 10 | 19 | 4.8 | 8.0 | 0.00 | 0.05 | 0.00 | 86 | 1017.3 |
| 20260508131532 | 10 | 18 | 4.8 | 8.0 | 0.00 | 0.05 | 0.00 | 88 | 1017.3 |
| 20260508131042 | 10 | 333 | 3.2 | 8.0 | 0.00 | 0.05 | 0.00 | 89 | 1017.3 |
| 20260508130555 | 9 | 12 | 3.2 | 8.0 | 0.00 | 0.05 | 0.00 | 89 | 1017.3 |
| 20260508130007 | 8 | 17 | 1.6 | 9.7 | 0.00 | 0.05 | 0.00 | 89 | 1017.3 |
| 20260508125522 | 8 | 10 | 4.8 | 9.7 | 0.00 | 0.05 | 0.00 | 91 | 1017.3 |
| 20260508125033 | 8 | 355 | 4.8 | 12.9 | 0.00 | 0.05 | 0.00 | 91 | 1017.3 |
| 20260508124551 | 8 | 13 | 6.4 | 12.9 | 0.00 | 0.05 | 0.00 | 90 | 1017.4 |
| 20260508124101 | 8 | 25 | 6.4 | 11.3 | 0.00 | 0.05 | 0.00 | 92 | 1017.4 |
| 20260508124002 | 8 | 11 | 6.4 | 9.7 | 0.00 | 0.05 | 0.00 | 93 | 1017.4 |
| 20260508123516 | 7 | 19 | 4.8 | 9.7 | 0.00 | 0.05 | 0.00 | 92 | 1017.4 |
| 20260508123026 | 7 | 64 | 6.4 | 12.9 | 0.00 | 0.05 | 0.00 | 92 | 1017.3 |
| 20260508122539 | 7 | 18 | 8.0 | 11.3 | 0.00 | 0.05 | 0.00 | 92 | 1017.2 |
| 20260508122052 | 7 | 49 | 4.8 | 12.9 | 0.00 | 0.05 | 0.00 | 92 | 1017.1 |
| 20260508121506 | 7 | 22 | 8.0 | 12.9 | 0.00 | 0.05 | 0.00 | 92 | 1017.2 |
| 20260508121016 | 7 | 36 | 6.4 | 9.7 | 0.00 | 0.05 | 0.00 | 92 | 1017.1 |
| 20260508120529 | 7 | 49 | 3.2 | 8.0 | 0.00 | 0.05 | 0.00 | 92 | 1017.0 |
| 20260508120040 | 8 | 34 | 1.6 | 4.8 | 0.00 | 0.05 | 0.00 | 94 | 1016.9 |
| 20260508115555 | 7 | 34 | 0.0 | 1.6 | 0.00 | 0.20 | 0.00 | 96 | 1017.0 |
| 20260508115007 | 7 | 34 | 0.0 | 0.0 | 0.00 | 0.20 | 0.00 | 97 | 1016.9 |
| 20260508114522 | 7 | 136 | 0.0 | 0.0 | 0.00 | 0.20 | 0.00 | 98 | 1016.9 |
| 20260508114031 | 7 | 49 | 0.0 | 0.0 | 0.00 | 0.20 | 0.00 | 98 | 1016.8 |
| 20260508113546 | 6 | 17 | 0.0 | 0.0 | 0.00 | 0.20 | 0.00 | 98 | 1016.7 |
| 20260508113107 | 6 | 47 | 0.0 | 0.0 | 0.00 | 0.20 | 0.00 | 97 | 1016.6 |
| 20260508113004 | 6 | 58 | 0.0 | 0.0 | 0.00 | 0.20 | 0.00 | 97 | 1016.6 |
| 20260508112513 | 6 | 58 | 0.0 | 0.0 | 0.00 | 0.20 | 0.00 | 97 | 1016.5 |
| 20260508112029 | 6 | 58 | 0.0 | 0.0 | 0.00 | 0.20 | 0.00 | 97 | 1016.4 |
| 20260508111542 | 6 | 58 | 0.0 | 0.0 | 0.00 | 0.20 | 0.00 | 97 | 1016.4 |
| 20260508111059 | 5 | 58 | 0.0 | 0.0 | 0.00 | 0.20 | 0.00 | 97 | 1016.3 |
| 20260508110507 | 5 | 58 | 0.0 | 0.0 | 0.00 | 0.20 | 0.00 | 97 | 1016.2 |
| 20260508110024 | 5 | 58 | 0.0 | 0.0 | 0.00 | 0.20 | 0.00 | 97 | 1016.1 |
| 20260508105538 | 5 | 59 | 0.0 | 0.0 | 0.00 | 0.33 | 0.00 | 97 | 1016.2 |
| 20260508105053 | 5 | 59 | 0.0 | 0.0 | 0.00 | 0.33 | 0.00 | 97 | 1016.1 |
| 20260508104507 | 6 | 59 | 0.0 | 0.0 | 0.00 | 0.33 | 0.00 | 97 | 1016.0 |
| 20260508104019 | 6 | 59 | 0.0 | 0.0 | 0.00 | 0.33 | 0.00 | 97 | 1016.0 |
| 20260508103529 | 6 | 59 | 0.0 | 0.0 | 0.00 | 0.33 | 0.00 | 97 | 1015.8 |
| 20260508103047 | 6 | 59 | 0.0 | 0.0 | 0.00 | 0.33 | 0.00 | 97 | 1015.7 |
| 20260508102555 | 6 | 59 | 0.0 | 0.0 | 0.00 | 0.33 | 0.00 | 97 | 1015.5 |
| 20260508102012 | 6 | 59 | 0.0 | 0.0 | 0.00 | 0.33 | 0.00 | 97 | 1015.6 |
| 20260508101522 | 6 | 59 | 0.0 | 0.0 | 0.00 | 0.33 | 0.00 | 97 | 1015.5 |
| 20260508101036 | 6 | 59 | 0.0 | 0.0 | 0.00 | 0.33 | 0.00 | 97 | 1015.4 |
| 20260508100547 | 6 | 59 | 0.0 | 0.0 | 0.00 | 0.33 | 0.00 | 97 | 1015.4 |
| 20260508100012 | 6 | 59 | 0.0 | 0.0 | 0.00 | 0.33 | 0.00 | 97 | 1015.3 |
| 20260508095514 | 6 | 59 | 0.0 | 0.0 | 0.00 | 0.69 | 0.00 | 97 | 1015.3 |
| 20260508095027 | 6 | 59 | 0.0 | 0.0 | 0.00 | 0.69 | 0.00 | 97 | 1015.2 |
| 20260508094545 | 6 | 59 | 0.0 | 0.0 | 0.00 | 0.69 | 0.00 | 97 | 1015.2 |
| 20260508094059 | 6 | 59 | 0.0 | 0.0 | 0.00 | 0.69 | 0.00 | 97 | 1015.1 |
| 20260508093512 | 6 | 59 | 0.0 | 0.0 | 0.00 | 0.69 | 0.00 | 96 | 1015.1 |
| 20260508093022 | 6 | 59 | 0.0 | 0.0 | 0.00 | 0.69 | 0.00 | 96 | 1015.2 |
| 20260508092536 | 6 | 59 | 0.0 | 0.0 | 0.00 | 0.69 | 0.00 | 97 | 1015.2 |
| 20260508092051 | 6 | 59 | 0.0 | 0.0 | 0.00 | 0.69 | 0.00 | 97 | 1015.1 |
| 20260508091503 | 6 | 59 | 0.0 | 0.0 | 0.00 | 0.69 | 0.00 | 97 | 1015.0 |
| 20260508091013 | 6 | 59 | 0.0 | 0.0 | 0.00 | 0.69 | 0.00 | 97 | 1014.9 |
| 20260508090528 | 6 | 59 | 0.0 | 0.0 | 0.00 | 0.69 | 0.00 | 97 | 1015.0 |
| 20260508090047 | 6 | 59 | 0.0 | 0.0 | 0.00 | 0.69 | 0.00 | 97 | 1015.0 |
| 20260508085557 | 6 | 59 | 0.0 | 0.0 | 0.00 | 0.71 | 0.00 | 97 | 1014.9 |
| 20260508085011 | 6 | 59 | 0.0 | 0.0 | 0.00 | 0.71 | 0.00 | 97 | 1014.9 |
| 20260508084525 | 6 | 59 | 0.0 | 0.0 | 0.00 | 0.71 | 0.00 | 96 | 1014.8 |
| 20260508084037 | 6 | 59 | 0.0 | 0.0 | 0.00 | 0.71 | 0.00 | 96 | 1014.8 |
| 20260508083550 | 6 | 59 | 0.0 | 0.0 | 0.00 | 0.71 | 0.00 | 96 | 1014.8 |
| 20260508083113 | 6 | 59 | 0.0 | 0.0 | 0.00 | 0.71 | 0.00 | 96 | 1014.9 |
| 20260508083001 | 6 | 59 | 0.0 | 0.0 | 0.00 | 0.71 | 0.00 | 96 | 1014.8 |
| 20260508082515 | 6 | 59 | 0.0 | 0.0 | 0.00 | 0.71 | 0.00 | 96 | 1014.8 |
| 20260508082027 | 6 | 59 | 0.0 | 0.0 | 0.00 | 0.71 | 0.00 | 96 | 1014.8 |
| 20260508081554 | 6 | 59 | 0.0 | 0.0 | 0.00 | 0.71 | 0.00 | 96 | 1014.8 |
| 20260508081057 | 6 | 59 | 0.0 | 0.0 | 0.00 | 0.71 | 0.00 | 96 | 1014.8 |
| 20260508080510 | 6 | 59 | 0.0 | 0.0 | 0.00 | 0.71 | 0.00 | 96 | 1014.8 |
| 20260508080019 | 7 | 59 | 0.0 | 0.0 | 0.00 | 0.71 | 0.00 | 96 | 1014.8 |
| 20260508075533 | 7 | 59 | 0.0 | 0.0 | 0.00 | 0.71 | 0.00 | 96 | 1014.7 |
| 20260508075045 | 7 | 59 | 0.0 | 0.0 | 0.00 | 0.71 | 0.00 | 96 | 1014.7 |
| 20260508074503 | 7 | 59 | 0.0 | 0.0 | 0.00 | 0.71 | 0.00 | 96 | 1014.7 |
| 20260508074017 | 7 | 59 | 0.0 | 0.0 | 0.00 | 0.71 | 0.00 | 96 | 1014.7 |
| 20260508073530 | 7 | 59 | 0.0 | 0.0 | 0.00 | 0.71 | 0.00 | 96 | 1014.8 |
| 20260508073049 | 7 | 59 | 0.0 | 0.0 | 0.00 | 0.71 | 0.00 | 96 | 1014.7 |
| 20260508072559 | 7 | 59 | 0.0 | 0.0 | 0.00 | 0.71 | 0.00 | 96 | 1014.6 |
| 20260508072502 | 7 | 59 | 0.0 | 0.0 | 0.00 | 0.71 | 0.00 | 96 | 1014.6 |
| 20260508072016 | 7 | 59 | 0.0 | 0.0 | 0.00 | 0.71 | 0.00 | 96 | 1014.6 |
| 20260508071529 | 7 | 59 | 0.0 | 0.0 | 0.00 | 0.71 | 0.00 | 96 | 1014.6 |
| 20260508071043 | 7 | 59 | 0.0 | 0.0 | 0.00 | 0.71 | 0.00 | 96 | 1014.6 |
| 20260508070553 | 7 | 59 | 0.0 | 0.0 | 0.00 | 0.71 | 0.00 | 96 | 1014.4 |
| 20260508070019 | 7 | 59 | 0.0 | 0.0 | 0.00 | 0.71 | 0.00 | 96 | 1014.4 |
| 20260508065523 | 7 | 59 | 0.0 | 0.0 | 0.00 | 0.79 | 0.00 | 96 | 1014.6 |
| 20260508065041 | 7 | 59 | 0.0 | 0.0 | 0.00 | 0.79 | 0.00 | 96 | 1014.6 |
| 20260508064605 | 7 | 59 | 0.0 | 0.0 | 0.00 | 0.79 | 0.00 | 96 | 1014.7 |
| 20260508064007 | 7 | 59 | 0.0 | 0.0 | 0.00 | 0.79 | 0.00 | 96 | 1014.6 |
| 20260508063518 | 7 | 59 | 0.0 | 0.0 | 0.00 | 0.79 | 0.00 | 96 | 1014.6 |
| 20260508063036 | 8 | 59 | 0.0 | 0.0 | 0.00 | 0.79 | 0.00 | 96 | 1014.6 |
| 20260508062545 | 8 | 59 | 0.0 | 0.0 | 0.00 | 0.79 | 0.00 | 97 | 1014.7 |
| 20260508062059 | 8 | 59 | 0.0 | 0.0 | 0.00 | 0.79 | 0.00 | 96 | 1014.6 |
| 20260508062001 | 8 | 59 | 0.0 | 0.0 | 0.00 | 0.79 | 0.00 | 96 | 1014.6 |
| 20260508061514 | 8 | 59 | 0.0 | 0.0 | 0.00 | 0.79 | 0.00 | 96 | 1014.6 |
| 20260508061028 | 8 | 59 | 0.0 | 0.0 | 0.00 | 0.79 | 0.00 | 97 | 1014.7 |
| 20260508060537 | 8 | 59 | 0.0 | 0.0 | 0.00 | 0.79 | 0.00 | 97 | 1014.7 |
| 20260508060053 | 8 | 59 | 0.0 | 0.0 | 0.00 | 0.79 | 0.00 | 97 | 1014.8 |
| 20260508055511 | 8 | 59 | 0.0 | 0.0 | 0.00 | 0.79 | 0.00 | 97 | 1014.8 |
| 20260508055021 | 8 | 59 | 0.0 | 0.0 | 0.00 | 0.79 | 0.00 | 97 | 1014.7 |
| 20260508054535 | 8 | 59 | 0.0 | 0.0 | 0.00 | 0.79 | 0.00 | 97 | 1014.8 |
| 20260508054047 | 8 | 57 | 0.0 | 0.0 | 0.00 | 0.79 | 0.00 | 97 | 1014.8 |
| 20260508053559 | 8 | 57 | 0.0 | 0.0 | 0.00 | 0.79 | 0.00 | 97 | 1014.7 |
| 20260508053503 | 8 | 57 | 0.0 | 0.0 | 0.00 | 0.79 | 0.00 | 97 | 1014.7 |
| 20260508053016 | 8 | 57 | 0.0 | 6.4 | 0.00 | 0.79 | 0.00 | 97 | 1014.6 |
| 20260508052532 | 8 | 57 | 0.0 | 6.4 | 0.00 | 0.79 | 0.00 | 97 | 1014.7 |
| 20260508052041 | 8 | 69 | 0.0 | 0.0 | 0.00 | 0.79 | 0.00 | 97 | 1014.6 |
| 20260508051555 | 8 | 226 | 0.0 | 0.0 | 0.00 | 0.79 | 0.00 | 96 | 1014.7 |
| 20260508051007 | 8 | 226 | 0.0 | 0.0 | 0.00 | 0.79 | 0.00 | 96 | 1014.6 |
| 20260508050525 | 8 | 226 | 0.0 | 0.0 | 0.00 | 0.79 | 0.00 | 96 | 1014.6 |
| 20260508050033 | 8 | 226 | 0.0 | 0.0 | 0.00 | 0.79 | 0.00 | 97 | 1014.5 |
| 20260508045546 | 8 | 226 | 0.0 | 0.0 | 0.00 | 0.81 | 0.00 | 97 | 1014.4 |
| 20260508045101 | 8 | 226 | 0.0 | 0.0 | 0.00 | 0.81 | 0.00 | 97 | 1014.4 |
| 20260508045002 | 8 | 226 | 0.0 | 0.0 | 0.00 | 0.81 | 0.00 | 97 | 1014.4 |
| 20260508044515 | 8 | 226 | 0.0 | 0.0 | 0.00 | 0.81 | 0.00 | 97 | 1014.4 |
| 20260508044024 | 7 | 226 | 0.0 | 0.0 | 0.00 | 0.81 | 0.00 | 96 | 1014.3 |
| 20260508043539 | 7 | 226 | 0.0 | 0.0 | 0.00 | 0.81 | 0.00 | 97 | 1014.2 |
| 20260508043100 | 7 | 209 | 0.0 | 0.0 | 0.00 | 0.81 | 0.00 | 97 | 1014.2 |
| 20260508042505 | 7 | 288 | 0.0 | 0.0 | 0.00 | 0.81 | 0.00 | 96 | 1014.1 |
| 20260508042015 | 7 | 288 | 0.0 | 0.0 | 0.00 | 0.81 | 0.00 | 97 | 1014.0 |
| 20260508041530 | 7 | 288 | 0.0 | 0.0 | 0.00 | 0.81 | 0.00 | 96 | 1014.0 |
| 20260508041041 | 7 | 288 | 0.0 | 0.0 | 0.00 | 0.81 | 0.00 | 96 | 1013.9 |
| 20260508040555 | 7 | 288 | 0.0 | 0.0 | 0.00 | 0.81 | 0.00 | 96 | 1013.9 |
| 20260508040019 | 7 | 288 | 0.0 | 0.0 | 0.00 | 0.81 | 0.00 | 96 | 1013.9 |
| 20260508035519 | 7 | 288 | 0.0 | 0.0 | 0.00 | 0.81 | 0.81 | 96 | 1013.7 |
| 20260508035031 | 7 | 288 | 0.0 | 0.0 | 0.00 | 0.81 | 0.81 | 96 | 1013.8 |
| 20260508034547 | 7 | 288 | 0.0 | 0.0 | 0.00 | 0.81 | 0.81 | 96 | 1013.7 |
| 20260508034058 | 7 | 288 | 0.0 | 0.0 | 0.00 | 0.81 | 0.81 | 96 | 1013.7 |
| 20260508033515 | 7 | 288 | 0.0 | 0.0 | 0.00 | 0.81 | 0.81 | 96 | 1013.8 |
| 20260508033025 | 7 | 288 | 0.0 | 0.0 | 0.00 | 0.81 | 0.81 | 95 | 1013.8 |
| 20260508032541 | 7 | 288 | 0.0 | 0.0 | 0.00 | 0.81 | 0.81 | 95 | 1013.8 |
| 20260508032050 | 7 | 288 | 0.0 | 0.0 | 0.00 | 0.81 | 0.81 | 95 | 1013.9 |
| 20260508031517 | 7 | 288 | 0.0 | 0.0 | 0.00 | 0.81 | 0.81 | 95 | 1013.8 |
| 20260508031025 | 7 | 288 | 0.0 | 0.0 | 0.00 | 0.81 | 0.81 | 95 | 1013.7 |
| 20260508030537 | 7 | 288 | 0.0 | 0.0 | 0.00 | 0.81 | 0.81 | 95 | 1013.6 |
| 20260508030059 | 7 | 288 | 0.0 | 0.0 | 0.00 | 0.81 | 0.81 | 95 | 1013.6 |
| 20260508025502 | 7 | 288 | 0.0 | 0.0 | 0.00 | 0.89 | 0.81 | 95 | 1013.5 |
| 20260508025017 | 7 | 288 | 0.0 | 0.0 | 0.00 | 0.89 | 0.81 | 95 | 1013.5 |
| 20260508024533 | 7 | 288 | 0.0 | 0.0 | 0.00 | 0.89 | 0.81 | 95 | 1013.4 |
| 20260508024043 | 7 | 288 | 0.0 | 0.0 | 0.00 | 0.89 | 0.81 | 95 | 1013.3 |
| 20260508023555 | 7 | 288 | 0.0 | 0.0 | 0.00 | 0.89 | 0.81 | 95 | 1013.2 |
| 20260508023003 | 7 | 288 | 0.0 | 0.0 | 0.00 | 0.89 | 0.81 | 95 | 1013.2 |
| 20260508022516 | 7 | 288 | 0.0 | 0.0 | 0.00 | 0.89 | 0.81 | 95 | 1013.3 |
| 20260508022031 | 7 | 288 | 0.0 | 0.0 | 0.00 | 0.89 | 0.81 | 95 | 1013.2 |
| 20260508021541 | 7 | 288 | 0.0 | 0.0 | 0.00 | 0.89 | 0.81 | 95 | 1013.2 |
| 20260508021055 | 7 | 288 | 0.0 | 0.0 | 0.00 | 0.89 | 0.81 | 94 | 1013.0 |
| 20260508020509 | 7 | 288 | 0.0 | 0.0 | 0.00 | 0.89 | 0.81 | 94 | 1013.1 |
| 20260508020021 | 8 | 288 | 0.0 | 0.0 | 0.00 | 0.89 | 0.81 | 94 | 1013.0 |
| 20260508015531 | 8 | 288 | 0.0 | 0.0 | 0.00 | 1.09 | 0.81 | 94 | 1012.8 |
| 20260508015045 | 8 | 288 | 0.0 | 0.0 | 0.00 | 1.09 | 0.81 | 94 | 1012.7 |
| 20260508014555 | 8 | 288 | 0.0 | 0.0 | 0.00 | 1.09 | 0.81 | 94 | 1012.6 |
| 20260508014011 | 8 | 288 | 0.0 | 0.0 | 0.00 | 1.09 | 0.81 | 94 | 1012.6 |
| 20260508013523 | 8 | 288 | 0.0 | 0.0 | 0.00 | 1.09 | 0.81 | 94 | 1012.5 |
| 20260508013037 | 8 | 288 | 0.0 | 0.0 | 0.00 | 1.09 | 0.81 | 94 | 1012.4 |
| 20260508012547 | 8 | 288 | 0.0 | 0.0 | 0.00 | 1.09 | 0.81 | 93 | 1012.3 |
| 20260508012004 | 8 | 288 | 0.0 | 0.0 | 0.00 | 1.09 | 0.81 | 93 | 1012.2 |
| 20260508011518 | 8 | 288 | 0.0 | 0.0 | 0.00 | 1.09 | 0.81 | 93 | 1012.1 |
| 20260508011027 | 8 | 288 | 0.0 | 0.0 | 0.00 | 1.09 | 0.81 | 93 | 1012.0 |
| 20260508010541 | 8 | 288 | 0.0 | 0.0 | 0.00 | 1.09 | 0.81 | 93 | 1012.0 |
| 20260508010051 | 8 | 288 | 0.0 | 0.0 | 0.00 | 1.09 | 0.81 | 92 | 1012.0 |
| 20260508005512 | 9 | 288 | 0.0 | 0.0 | 0.00 | 1.09 | 0.81 | 92 | 1011.8 |
| 20260508005018 | 9 | 288 | 0.0 | 0.0 | 0.00 | 1.09 | 0.81 | 92 | 1011.7 |
| 20260508004532 | 9 | 288 | 0.0 | 0.0 | 0.00 | 1.09 | 0.81 | 91 | 1011.7 |
| 20260508004043 | 10 | 288 | 0.0 | 0.0 | 0.00 | 1.09 | 0.81 | 91 | 1011.7 |
| 20260508003600 | 10 | 288 | 0.0 | 0.0 | 0.00 | 1.09 | 0.81 | 91 | 1011.7 |
| 20260508003009 | 10 | 288 | 0.0 | 0.0 | 0.00 | 1.09 | 0.81 | 91 | 1011.4 |
| 20260508002525 | 10 | 288 | 0.0 | 0.0 | 0.00 | 1.09 | 0.81 | 91 | 1011.5 |
| 20260508002035 | 10 | 288 | 0.0 | 0.0 | 0.00 | 1.09 | 0.81 | 90 | 1011.5 |
| 20260508001549 | 10 | 288 | 0.0 | 0.0 | 0.00 | 1.09 | 0.81 | 90 | 1011.4 |
| 20260508001005 | 11 | 288 | 0.0 | 0.0 | 0.00 | 1.09 | 0.81 | 90 | 1011.4 |
| 20260508000523 | 11 | 288 | 0.0 | 0.0 | 0.00 | 1.09 | 0.81 | 90 | 1011.5 |
| 20260508000031 | 11 | 288 | 0.0 | 0.0 | 0.00 | 1.09 | 0.81 | 90 | 1011.6 |
| 20260507235545 | 11 | 288 | 0.0 | 0.0 | 0.00 | 1.12 | 0.81 | 90 | 1011.5 |
| 20260507235059 | 11 | 288 | 0.0 | 0.0 | 0.00 | 1.12 | 0.81 | 89 | 1011.4 |
| 20260507234512 | 11 | 288 | 0.0 | 0.0 | 0.00 | 1.12 | 0.81 | 89 | 1011.5 |
| 20260507234021 | 11 | 288 | 0.0 | 0.0 | 0.00 | 1.12 | 0.81 | 88 | 1011.5 |
| 20260507233535 | 11 | 288 | 0.0 | 0.0 | 0.00 | 1.12 | 0.81 | 88 | 1011.4 |
| 20260507233045 | 11 | 288 | 0.0 | 0.0 | 0.03 | 1.12 | 0.81 | 87 | 1011.5 |
| 20260507232506 | 11 | 288 | 0.0 | 0.0 | 0.03 | 1.12 | 0.81 | 87 | 1011.5 |
| 20260507232018 | 11 | 288 | 0.0 | 0.0 | 0.03 | 1.12 | 0.81 | 88 | 1011.6 |
| 20260507231530 | 11 | 288 | 0.0 | 0.0 | 0.03 | 1.12 | 0.81 | 87 | 1011.6 |
| 20260507231044 | 12 | 288 | 0.0 | 0.0 | 0.03 | 1.12 | 0.81 | 86 | 1011.6 |
| 20260507230557 | 12 | 288 | 0.0 | 6.4 | 0.03 | 1.12 | 0.81 | 86 | 1011.6 |
| 20260507230011 | 12 | 288 | 0.0 | 6.4 | 0.03 | 1.12 | 0.81 | 85 | 1011.5 |
| 20260507225524 | 12 | 200 | 1.6 | 6.4 | 0.03 | 1.12 | 0.81 | 85 | 1011.6 |
| 20260507225039 | 12 | 253 | 0.0 | 6.4 | 0.03 | 1.12 | 0.81 | 84 | 1011.6 |
| 20260507224551 | 12 | 279 | 0.0 | 6.4 | 0.03 | 1.12 | 0.81 | 83 | 1011.5 |
| 20260507224008 | 12 | 302 | 0.0 | 4.8 | 0.03 | 1.12 | 0.81 | 85 | 1011.6 |
| 20260507223521 | 12 | 277 | 0.0 | 4.8 | 0.03 | 1.12 | 0.81 | 86 | 1011.5 |
| 20260507223035 | 12 | 277 | 0.0 | 4.8 | 0.00 | 1.09 | 0.79 | 85 | 1011.4 |
| 20260507222549 | 12 | 277 | 0.0 | 4.8 | 0.00 | 1.09 | 0.79 | 85 | 1011.4 |
| 20260507222007 | 12 | 285 | 1.6 | 4.8 | 0.00 | 1.09 | 0.79 | 84 | 1011.3 |
| 20260507221515 | 12 | 234 | 0.0 | 6.4 | 0.00 | 1.09 | 0.79 | 84 | 1011.3 |
| 20260507221030 | 12 | 234 | 0.0 | 6.4 | 0.00 | 1.09 | 0.79 | 84 | 1011.2 |
| 20260507220542 | 12 | 234 | 0.0 | 3.2 | 0.00 | 1.09 | 0.79 | 84 | 1011.2 |
| 20260507220054 | 12 | 241 | 0.0 | 1.6 | 0.00 | 1.09 | 0.79 | 85 | 1011.1 |
| 20260507215509 | 12 | 242 | 0.0 | 1.6 | 0.00 | 1.09 | 0.79 | 87 | 1011.2 |
| 20260507215027 | 11 | 242 | 0.0 | 3.2 | 0.00 | 1.09 | 0.79 | 85 | 1011.2 |
| 20260507214536 | 11 | 242 | 0.0 | 3.2 | 0.00 | 1.09 | 0.79 | 88 | 1011.1 |
| 20260507214051 | 11 | 242 | 0.0 | 3.2 | 0.00 | 1.09 | 0.79 | 86 | 1011.0 |
| 20260507213507 | 11 | 350 | 0.0 | 4.8 | 0.00 | 1.09 | 0.79 | 85 | 1010.9 |
| 20260507213020 | 11 | 159 | 0.0 | 1.6 | 0.00 | 1.09 | 0.79 | 88 | 1010.8 |
| 20260507212536 | 11 | 144 | 0.0 | 3.2 | 0.00 | 1.09 | 0.79 | 87 | 1010.8 |
| 20260507212047 | 11 | 213 | 0.0 | 4.8 | 0.00 | 1.09 | 0.79 | 89 | 1010.7 |
| 20260507211503 | 11 | 213 | 0.0 | 6.4 | 0.00 | 1.09 | 0.79 | 90 | 1010.8 |
| 20260507211014 | 11 | 213 | 1.6 | 9.7 | 0.00 | 1.09 | 0.79 | 89 | 1010.8 |
| 20260507210528 | 11 | 256 | 1.6 | 9.7 | 0.00 | 1.09 | 0.79 | 88 | 1010.7 |
| 20260507210038 | 11 | 185 | 0.0 | 4.8 | 0.00 | 1.09 | 0.79 | 89 | 1010.8 |
| 20260507205555 | 11 | 291 | 0.0 | 6.4 | 0.00 | 1.09 | 0.79 | 89 | 1010.7 |
| 20260507205009 | 11 | 323 | 1.6 | 9.7 | 0.00 | 1.09 | 0.79 | 88 | 1010.7 |
| 20260507204520 | 11 | 333 | 1.6 | 14.5 | 0.00 | 1.09 | 0.79 | 88 | 1010.7 |
| 20260507204033 | 11 | 325 | 3.2 | 14.5 | 0.00 | 1.09 | 0.79 | 87 | 1010.7 |
| 20260507203546 | 11 | 5 | 0.0 | 6.4 | 0.00 | 1.09 | 0.79 | 87 | 1010.6 |
| 20260507203059 | 11 | 246 | 1.6 | 8.0 | 0.00 | 1.09 | 0.79 | 88 | 1010.6 |
| 20260507202516 | 11 | 311 | 3.2 | 8.0 | 0.00 | 1.09 | 0.79 | 88 | 1010.5 |
| 20260507202024 | 11 | 279 | 0.0 | 6.4 | 0.00 | 1.09 | 0.79 | 90 | 1010.5 |
| 20260507201541 | 11 | 243 | 1.6 | 8.0 | 0.00 | 1.09 | 0.79 | 89 | 1010.5 |
| 20260507201053 | 11 | 291 | 3.2 | 8.0 | 0.00 | 1.09 | 0.79 | 89 | 1010.4 |
| 20260507200511 | 11 | 232 | 1.6 | 4.8 | 0.00 | 1.09 | 0.79 | 91 | 1010.4 |
| 20260507200022 | 11 | 217 | 0.0 | 4.8 | 0.00 | 1.09 | 0.79 | 91 | 1010.3 |
| 20260507195536 | 11 | 346 | 0.0 | 6.4 | 0.00 | 1.09 | 0.79 | 92 | 1010.5 |
| 20260507195049 | 11 | 211 | 3.2 | 8.0 | 0.00 | 1.09 | 0.79 | 92 | 1010.4 |